星链-4553 (STARLINK-4553 )
导读
STARLINK-4553是美国SpaceX星链网络计划中的卫星,于2022年8月19日8时成功发射。星链项目旨在搭建覆盖全球的低轨卫星互联网星座,该卫星入轨后与其他星链卫星组网,为全球用户提供低延迟高速互联网服务,特别助力偏远地区网络覆盖,推动全球互联基础设施建设。
Basic Information
目录编号:
53577
目录名称:
STARLINK-4553
国际标识:
2022-101BC
轨道中心:
EARTH
卫星名称:
星链-4553
卫星全名:
星链-4553 (STARLINK-4553 )
卫星状态:
在轨 (已飞行1477 天)
发射日期:
2022-08-19 UTC
国别 :
美国
(US)
星等 :
--
Orbit Information
| 数据来源 | 国际轨道数据 |
| 星历时间: | 2026-09-04T12:57:27+0800 4小时前 查看轨道信息 |
| 半长轴: | 6840.879km |
| 偏心率: | 0.0001138 |
| 轨道倾角: | 53.160° |
| 近地点辐角 | 78.339° |
| 升交点赤经 | 319.642° |
| 平近点角 | 281.774° |
| 近地点: | 461.963km |
| 远地点: | 463.521km |
| 周期: | 93.849分钟 |
| 每日圈数: | 15.343872 |
Detailed Information
固有亮度:
5
最大亮度:
2.5
卫星平台:
Starlink v1.5
覆盖范围:
全球
运营商:
太空探索技术公司
运营商所在国:
美国
制造商(研发单位):
太空探索技术公司
制造商所在国:
美国
使用方式:
暂无
Satellite Introduction
星链(Starlink)计划是由太空探索技术公司(SpaceX)提出的一个巨型低轨卫星互联网星座项目,计划在2019年至2024年间在太空搭建由约1.2万颗卫星组成的“星链”网络,其中1584颗将部署在地球上空550千米处的近地轨道,并从2020年开始工作。该卫星仍在工作。
2D Orbit Map
3D Orbit Map
Orbit Altitude Analysis Chart
Orbit Inclination Analysis Chart
Orbit Comprehensive Analysis Chart
View Comprehensive ChartConjunction Data List
| Event ID | Objects | TCA | Miss Dist (km) | Collision Risk Probability | Collision Risk Index (CRI) | Action |
|---|---|---|---|---|---|---|
| CDM_260906-035505-357706-304321 |
STARLINK-4553
(53577)
STARLINK-32827
(63043) | 2026-09-06T 03:55:17+0000 |
0.586 km
远距离 | 1.228114E-4 高风险 | 0.77 | |
| CDM_260906-052905-357706-304321 |
STARLINK-4553
(53577)
STARLINK-32827
(63043) | 2026-09-06T 05:29:04+0000 |
1.877 km
极远距离 | 2.972506E-6 低风险 | 0.44 | |
| CDM_260906-022105-357706-304321 |
STARLINK-4553
(53577)
STARLINK-32827
(63043) | 2026-09-06T 02:21:29+0000 |
2.457 km
极远距离 | 1.605056E-6 低风险 | 0.39 | |
| CDM_260903-044305-357705-363321 |
STARLINK-4553
(53577)
STARLINK-4593
(53633) | 2026-09-03T 04:43:08+0000 |
2.509 km
极远距离 | 1.55762E-6 低风险 | 0.39 | |
| CDM_260905-205005-357705-361321 |
STARLINK-4553
(53577)
STARLINK-4655
(53613) | 2026-09-05T 20:50:09+0000 |
2.999 km
极远距离 | 1.201248E-6 低风险 | 0.37 |

